TimeMST,TemperatureF,Dew PointF,Humidity,Sea Level PressureIn,VisibilityMPH,Wind Direction,Wind SpeedMPH,Gust SpeedMPH,PrecipitationIn,Events,Conditions,WindDirDegrees,DateUTC
1:53 AM,21.9,10.0,60,30.13,10.0,Calm,Calm,-,N/A,,Clear,0,2013-02-08 08:53:00
2:53 AM,24.1,12.9,62,30.11,10.0,SE,4.6,-,N/A,,Clear,130,2013-02-08 09:53:00
3:53 AM,30.9,17.1,57,30.06,10.0,SSW,6.9,-,N/A,,Clear,200,2013-02-08 10:53:00
4:53 AM,30.9,17.1,57,30.05,10.0,SW,10.4,-,N/A,,Clear,230,2013-02-08 11:53:00
5:53 AM,36.0,19.0,50,30.05,10.0,SSW,15.0,21.9,N/A,,Clear,210,2013-02-08 12:53:00
6:53 AM,34.0,19.0,54,30.08,10.0,SSW,10.4,-,N/A,,Clear,210,2013-02-08 13:53:00
7:53 AM,41.0,19.9,43,30.06,10.0,SSW,18.4,26.5,N/A,,Clear,200,2013-02-08 14:53:00
8:53 AM,46.0,19.9,35,30.04,10.0,South,21.9,31.1,N/A,,Clear,190,2013-02-08 15:53:00
9:53 AM,51.1,19.9,29,30.01,10.0,South,27.6,35.7,N/A,,Clear,190,2013-02-08 16:53:00
10:53 AM,52.0,21.0,30,29.99,10.0,South,31.1,40.3,N/A,,Clear,190,2013-02-08 17:53:00
11:53 AM,55.9,21.0,26,29.94,10.0,South,29.9,42.6,N/A,,Clear,180,2013-02-08 18:53:00
12:53 PM,57.9,21.0,24,29.90,10.0,South,39.1,46.0,N/A,,Clear,190,2013-02-08 19:53:00
1:53 PM,57.0,21.9,26,29.86,10.0,South,39.1,49.5,N/A,,Clear,190,2013-02-08 20:53:00
2:51 PM,55.4,21.2,26,29.83,2.5,South,29.9,47.2,N/A,,Haze,190,2013-02-08 21:51:00
2:53 PM,55.0,21.0,27,29.83,2.5,South,38.0,50.6,N/A,,Haze,190,2013-02-08 21:53:00
3:06 PM,53.6,21.2,28,29.82,4.0,South,42.6,54.1,N/A,,Haze,190,2013-02-08 22:06:00
3:41 PM,55.4,21.2,26,29.83,5.0,South,29.9,43.7,N/A,,Haze,190,2013-02-08 22:41:00
3:53 PM,54.0,21.9,29,29.81,6.0,South,34.5,49.5,N/A,,Haze,190,2013-02-08 22:53:00
4:00 PM,53.6,21.2,28,29.83,2.5,South,32.2,46.0,N/A,,Haze,180,2013-02-08 23:00:00
4:12 PM,53.6,21.2,28,29.84,1.8,South,29.9,36.8,N/A,,Haze,180,2013-02-08 23:12:00
4:16 PM,53.6,21.2,28,29.84,2.0,South,27.6,36.8,N/A,,Haze,180,2013-02-08 23:16:00
4:24 PM,53.6,21.2,28,29.83,1.8,South,26.5,35.7,N/A,,Haze,180,2013-02-08 23:24:00
4:48 PM,51.8,21.2,30,29.82,3.0,South,31.1,44.9,N/A,,Haze,180,2013-02-08 23:48:00
4:53 PM,52.0,21.9,31,29.81,4.0,South,31.1,44.9,N/A,,Haze,180,2013-02-08 23:53:00
5:05 PM,51.8,21.2,30,29.81,2.5,South,27.6,36.8,N/A,,Haze,180,2013-02-09 00:05:00
5:14 PM,51.8,21.2,30,29.82,3.0,South,28.8,42.6,N/A,,Haze,180,2013-02-09 00:14:00
5:38 PM,50.0,21.2,32,29.81,9.0,South,31.1,39.1,N/A,,Scattered Clouds,180,2013-02-09 00:38:00
5:53 PM,50.0,21.9,33,29.80,10.0,South,26.5,36.8,N/A,,Clear,180,2013-02-09 00:53:00
6:53 PM,48.0,21.9,36,29.81,9.0,South,24.2,35.7,N/A,,Clear,180,2013-02-09 01:53:00
7:53 PM,46.9,21.9,37,29.80,10.0,South,26.5,34.5,N/A,,Clear,190,2013-02-09 02:53:00
8:53 PM,46.0,23.0,40,29.78,10.0,SSW,25.3,29.9,N/A,,Clear,200,2013-02-09 03:53:00
9:53 PM,46.0,21.0,37,29.77,10.0,SSW,24.2,33.4,N/A,,Clear,200,2013-02-09 04:53:00
10:53 PM,46.0,19.0,34,29.73,10.0,South,28.8,41.4,N/A,,Clear,190,2013-02-09 05:53:00
11:53 PM,44.1,18.0,35,29.72,10.0,South,29.9,40.3,N/A,,Clear,180,2013-02-09 06:53:00